[[{"header":{"parameterUnit":"m.s-1","parameterCategory":2,"la1":30.2991,"la2":30.254,"lo1":-89.0895,"lo2":-89.0444,"dy":0.0017,"dx":0.0017,"nx":28,"ny":28,"refTime":"2025-12-04T09:00:00:Z","depth":"0","parameterNumber":2,"parameterNumberName":"U-component_of_CURRENTS"},"data":[0,0,0,0,0,0,0,0,0,0,0,0,0,0,0,0,0,0,0,0,0,0,0,0,0,0,0,0,0,0,0,0,0,0,0,0,0,0,0,0,0,0,0,0,0,0,0,0,0,0,0,0,0,0,0,0,0,0,0.4402,0.4403,0,0.4441,0.4441,0.4441,0.4427,0.4426,0.4426,0.4425,0.4411,0.4411,0.4411,0,0,0,0,0,0,0,0,0,0,0,0,0,0.4335,0.4336,0.4402,0.4403,0.4404,0.4441,0.4441,0.4441,0.4427,0.4426,0.4425,0.4425,0.4411,0.4411,0.4411,0,0,0,0,0,0,0,0,0,0,0,0,0,0.4364,0.4336,0.4402,0.4404,0.4405,0.444,0.4441,0.4441,0.4427,0.4426,0.4425,0.4424,0.4411,0.4411,0.4411,0.4428,0,0,0.4412,0.4412,0,0,0,0,0,0,0,0,0.4363,0.4366,0.4403,0.4404,0.4405,0.4431,0.4412,0.4435,0.4427,0.4415,0.4425,0.4424,0.4416,0.4415,0.442,0.4428,0.4427,0.4412,0.4412,0.4412,0.4412,0,0,0,0,0,0,0,0.4361,0.4365,0.4414,0.4404,0.4405,0.4409,0.4412,0.4416,0.4415,0.4416,0.4416,0.4426,0.4415,0.442,0.4419,0.4427,0.4412,0.4412,0.4412,0.4412,0.4504,0.4507,0,0,0,0,0,0,0.4363,0.4363,0.4413,0.4415,0.4385,0.4411,0.4414,0.4421,0.4416,0.4417,0.4427,0.4425,0.442,0.4419,0.4419,0.4479,0.4412,0.4412,0.4412,0.4502,0.4505,0.4508,0,0,0,0,0,0,0.4362,0.4367,0.4411,0.4393,0.4399,0.4414,0.4421,0.4422,0.4433,0.4426,0.4424,0.4438,0.4419,0.4419,0.4442,0.4477,0.4412,0.4412,0.4499,0.4503,0.4506,0.4574,0,0,0,0,0,0,0.4359,0.4366,0.4371,0.4393,0.4401,0.4443,0.4422,0.4423,0.4442,0.4441,0.4435,0.4433,0.4419,0.4442,0.4442,0.4476,0.4412,0.4496,0.4501,0.4505,0.4569,0.458,0.4589,0,0,0,0,0,0.4357,0.4367,0.4371,0.4378,0.4407,0.4445,0.4449,0.4453,0.4444,0.4458,0.4459,0.4433,0.447,0.4444,0.4443,0.4478,0.4494,0.45,0.4505,0.4565,0.4577,0.4588,0,0,0,0,0,0,0.4336,0.4368,0.4372,0.439,0.4422,0.4444,0.4458,0.4463,0.4475,0.4473,0.4457,0.4456,0.4497,0.4481,0.4452,0.4522,0.4481,0.4486,0.4526,0.4538,0.4548,0.4563,0.4412,0,0,0,0,0,0.4337,0.4352,0.4388,0.4402,0.4421,0.4442,0.4457,0.4467,0.4483,0.4487,0.4485,0.4493,0.4519,0.4521,0.4539,0.4565,0.4583,0.4592,0.4602,0.461,0.4625,0.4689,0.4705,0.4525,0.4525,0.4525,0,0,0.433,0.4352,0.4359,0.44,0.4421,0.4458,0.4448,0.4481,0.4513,0.4484,0.4518,0.453,0.4539,0.4579,0.4595,0.4566,0.4674,0.4617,0.4624,0.4634,0.4696,0.4713,0.4729,0.4528,0.4528,0.4527,0,0,0.4332,0.435,0.4368,0.4402,0.4448,0.4472,0.4486,0.4521,0.4538,0.4576,0.4577,0.4613,0.4628,0.4654,0.4666,0.4742,0.4732,0.4744,0.4793,0.4855,0.487,0.4884,0.4936,0.4954,0.4738,0.4738,0.4738,0,0.4322,0.4351,0.438,0.4416,0.4447,0.4482,0.4518,0.4551,0.4587,0.4614,0.4595,0.4672,0.4671,0.4744,0.477,0.4764,0.4793,0.4742,0.4867,0.4881,0.4894,0.4944,0.4963,0.4742,0.4742,0.4741,0.4741,0,0.4342,0.4372,0.4391,0.4447,0.4488,0.4526,0.4584,0.4623,0.4645,0.4677,0.4754,0.4771,0.4813,0.4827,0.4817,0.4915,0.4905,0.488,0.4833,0.4916,0.4964,0.4982,0.4748,0.4746,0.4745,0.4744,0,0,0.4296,0.4386,0.439,0.442,0.4509,0.4537,0.4616,0.4691,0.4751,0.4787,0.4864,0.4913,0.4926,0.4944,0.495,0.5001,0.5112,0.4978,0.4979,0.5023,0.5253,0.5215,0.523,0.5107,0.511,0.5113,0.5253,0,0.4301,0.4357,0.4414,0.4474,0.451,0.4585,0.4657,0.4732,0.4805,0.4891,0.4936,0.5014,0.4971,0.501,0.5053,0.5113,0.5162,0.5076,0.5172,0.5175,0.5126,0.5251,0.5091,0.5199,0.527,0.5273,0.5275,0,0.4295,0.4337,0.4392,0.4489,0.4515,0.4564,0.4691,0.4764,0.4905,0.4973,0.506,0.5105,0.5203,0.5151,0.5276,0.5225,0.5245,0.5275,0.5281,0.5234,0.5172,0.5128,0.5229,0.513,0.5303,0.5301,0.5299,0,0.4223,0.4317,0.4354,0.4387,0.4509,0.4554,0.4627,0.4775,0.4865,0.5039,0.512,0.5234,0.5304,0.536,0.5405,0.5357,0.5543,0.5477,0.5462,0.5459,0.5336,0.5317,0.5345,0.5567,0.5567,0.5566,0.5566,0,0.4194,0.4219,0.432,0.4338,0.44,0.4508,0.4608,0.4721,0.4904,0.5009,0.5143,0.5254,0.5362,0.5462,0.5476,0.5543,0.5596,0.5511,0.5509,0.5356,0.5337,0.5254,0.5194,0.5571,0.557,0.5569,0.5568,0,0.4103,0.4168,0.4213,0.4329,0.4363,0.4405,0.4576,0.4662,0.4853,0.5004,0.5066,0.5303,0.5453,0.5543,0.5676,0.5636,0.5568,0.5701,0.5515,0.5489,0.5348,0.5298,0.5158,0.4987,0.5715,0.5715,0.5715,0,0.4058,0.4072,0.4173,0.4193,0.424,0.4326,0.4393,0.4606,0.4714,0.5011,0.5073,0.5309,0.5446,0.5658,0.569,0.576,0.5574,0.561,0.5482,0.536,0.5303,0.5096,0.4946,0.5351,0.5349,0.5346,0.5344,0,0.3974,0.401,0.4043,0.4092,0.4145,0.4208,0.4323,0.4402,0.4647,0.4804,0.5022,0.5179,0.5441,0.5494,0.5621,0.5625,0.5369,0.5563,0.5487,0.5081,0.4807,0.4634,0.524,0.5323,0.5325,0.5327,0.5328,0.5329,0.3898,0.3897,0.3942,0.3971,0.4022,0.4053,0.4056,0.4212,0.4354,0.4544,0.4821,0.4989,0.5244,0.5436,0.5413,0.532,0.5242,0.5165,0.5136,0.4955,0.4711,0.5278,0.5322,0.5324,0.5326,0.5328,0.5329,0,0.3786,0.3794,0.382,0.3831,0.3811,0.3899,0.3973,0.3957,0.4031,0.4306,0.4491,0.4745,0.4875,0.5033,0.5108,0.4941,0.4682,0.4795,0.4469,0.4354,0.493,0.4836,0.4714,0.4714,0.4714,0.4714,0.4714,0.4714,0.3728,0.3689,0.3696,0.3606,0.3609,0.3528,0.3522,0.355,0.3688,0.3837,0.3998,0.4225,0.467,0.4937,0.4859,0.4715,0.432,0.414,0.4083,0.453,0.4561,0.459,0.4489,0.4296,0.4296,0.3327,0.3321,0.3315]},{"header":{"parameterUnit":"m.s-1","parameterCategory":2,"la1":30.2991,"la2":30.254,"lo1":-89.0895,"lo2":-89.0444,"dy":0.0017,"dx":0.0017,"nx":28,"ny":28,"refTime":"2025-12-04T09:00:00:Z","depth":"0","parameterNumber":3,"parameterNumberName":"V-component_of_CURRENTS"},"data":[0,0,0,0,0,0,0,0,0,0,0,0,0,0,0,0,0,0,0,0,0,0,0,0,0,0,0,0,0,0,0,0,0,0,0,0,0,0,0,0,0,0,0,0,0,0,0,0,0,0,0,0,0,0,0,0,0,0,0.0086,0.0085,0,-0.0008,-0.0009,-0.0011,-0.0077,-0.0077,-0.0078,-0.0078,-0.0199,-0.0202,-0.0204,0,0,0,0,0,0,0,0,0,0,0,0,0,0.0128,0.0128,0.0086,0.0085,0.0084,-0.0008,-0.0009,-0.0011,-0.0077,-0.0077,-0.0078,-0.0078,-0.0198,-0.0201,-0.0205,0,0,0,0,0,0,0,0,0,0,0,0,0,0.0077,0.0128,0.0086,0.0042,0.0038,-0.0008,-0.0009,-0.0011,-0.0077,-0.0077,-0.0078,-0.0078,-0.0196,-0.0201,-0.0205,-0.0225,0,0,-0.0219,-0.0221,0,0,0,0,0,0,0,0,0.008,0.0075,0.005,0.0045,0.004,-0.0029,-0.0039,-0.0083,-0.0077,-0.0036,-0.0078,-0.0078,-0.0142,-0.0151,-0.0172,-0.0231,-0.0236,-0.0219,-0.0222,-0.0224,-0.0225,0,0,0,0,0,0,0,0.0084,0.0078,0.0046,0.0049,0.0043,-0.0,-0.0007,-0.0048,-0.0089,-0.004,-0.0044,-0.005,-0.0145,-0.0167,-0.0175,-0.0238,-0.0219,-0.0223,-0.0226,-0.0228,-0.0312,-0.0312,0,0,0,0,0,0,0.0106,0.0082,0.0049,0.0043,0.0063,0.0,-0.0008,-0.0009,-0.0088,-0.0099,-0.005,-0.0053,-0.0159,-0.017,-0.0179,-0.0181,-0.0224,-0.0228,-0.0231,-0.0313,-0.0312,-0.0312,0,0,0,0,0,0,0.0107,0.0104,0.0053,0.0062,0.0053,0.0001,0.0,-0.001,-0.0026,-0.0094,-0.0107,-0.0053,-0.016,-0.0173,-0.0204,-0.0187,-0.023,-0.0234,-0.0313,-0.0312,-0.0312,-0.02,0,0,0,0,0,0,0.0109,0.0105,0.0111,0.0064,0.0054,0.0043,0.0001,-0.0012,-0.0028,-0.0033,-0.0102,-0.0114,-0.0161,-0.0197,-0.0208,-0.0194,-0.0238,-0.0314,-0.0313,-0.0312,-0.0204,-0.0196,-0.0188,0,0,0,0,0,0.0111,0.013,0.0112,0.0108,0.0064,0.0044,0.0035,-0.0007,-0.0027,-0.0025,-0.0072,-0.0111,-0.02,-0.02,-0.0213,-0.02,-0.0314,-0.0313,-0.0312,-0.0208,-0.0197,-0.0189,0,0,0,0,0,0,0.015,0.0124,0.0103,0.0112,0.0086,0.0034,0.0033,0.0004,-0.0033,-0.0037,-0.0105,-0.012,-0.0143,-0.0187,-0.0185,-0.0223,-0.0264,-0.0266,-0.018,-0.0171,-0.0163,-0.0132,-0.0241,0,0,0,0,0,0.0163,0.017,0.0134,0.014,0.0133,0.0083,0.0069,0.0044,0.0006,-0.0011,-0.0059,-0.0111,-0.0151,-0.0171,-0.0216,-0.0233,-0.028,-0.0236,-0.0227,-0.022,-0.0205,-0.0263,-0.0258,-0.0308,-0.0308,-0.0308,0,0,0.0178,0.0165,0.0168,0.0149,0.0123,0.0132,0.0074,0.0066,0.0071,-0.0017,-0.0027,-0.0084,-0.015,-0.0171,-0.0185,-0.0204,-0.0231,-0.0219,-0.0212,-0.0201,-0.0261,-0.0256,-0.0252,-0.0308,-0.0308,-0.0308,0,0,0.0225,0.0204,0.023,0.0218,0.0196,0.017,0.0176,0.0133,0.0112,0.0092,0.0032,-0.001,-0.0074,-0.0114,-0.0144,-0.0119,-0.0187,-0.0137,-0.0069,-0.0125,-0.0121,-0.0118,-0.0166,-0.0169,-0.0131,-0.0131,-0.0131,0,0.0244,0.0274,0.0233,0.0257,0.0262,0.0198,0.0233,0.0202,0.0154,0.0147,0.0106,0.0014,-0.0045,-0.0066,-0.0062,-0.0099,-0.0141,-0.0097,-0.0113,-0.0111,-0.011,-0.016,-0.0164,-0.0126,-0.0126,-0.0127,-0.0127,0,0.0313,0.0335,0.0351,0.0364,0.0361,0.0379,0.0342,0.033,0.0292,0.0258,0.0221,0.0129,0.008,0.0047,-0.0002,-0.0018,-0.0054,-0.0096,-0.0131,-0.0098,-0.0154,-0.0159,-0.0118,-0.012,-0.0121,-0.0123,0,0,0.0367,0.0397,0.0403,0.0435,0.0424,0.0436,0.0444,0.044,0.046,0.0378,0.0387,0.0292,0.0235,0.0197,0.0122,0.0065,0.0029,-0.0002,-0.0008,-0.0037,-0.009,-0.0108,-0.0118,-0.0017,-0.0018,-0.0018,-0.0129,0,0.0436,0.0517,0.0507,0.0582,0.0623,0.058,0.0596,0.0579,0.0548,0.0535,0.0425,0.04,0.0295,0.0274,0.02,0.0077,0.0017,0.0063,-0.0128,-0.0133,-0.0144,-0.0123,-0.0087,-0.0182,-0.0136,-0.0137,-0.0138,0,0.0513,0.0561,0.065,0.0706,0.072,0.0744,0.0775,0.0787,0.0745,0.072,0.0663,0.0573,0.0485,0.0385,0.019,0.0224,0.0084,-0.0028,-0.0036,-0.0093,-0.0163,-0.0211,-0.0196,-0.0435,-0.0148,-0.0147,-0.0146,0,0.0588,0.0664,0.0745,0.0763,0.0806,0.0832,0.0852,0.0842,0.0888,0.0845,0.0861,0.0723,0.067,0.0472,0.0239,0.0215,0.0016,-0.0047,-0.02,-0.0203,-0.0228,-0.0232,-0.0454,-0.0186,-0.0186,-0.0186,-0.0185,0,0.0673,0.0737,0.0786,0.083,0.0932,0.0923,0.1021,0.1017,0.1041,0.1115,0.0967,0.0986,0.0689,0.0534,0.0296,0.0044,0.0058,-0.0177,-0.0229,-0.0189,-0.0188,-0.0444,-0.0602,-0.019,-0.0189,-0.0188,-0.0187,0,0.0745,0.0771,0.0874,0.094,0.0971,0.1045,0.1155,0.1231,0.1225,0.1315,0.131,0.1192,0.0997,0.0687,0.0376,0.0145,-0.0262,-0.0211,-0.0138,-0.018,-0.0544,-0.0696,-0.1023,-0.1124,-0.0394,-0.0395,-0.0396,0,0.0789,0.0849,0.0966,0.104,0.1075,0.1187,0.1273,0.1322,0.1427,0.1455,0.1516,0.1355,0.1292,0.0827,0.0386,-0.0028,-0.0293,-0.0282,-0.0327,-0.055,-0.076,-0.0897,-0.0967,-0.0323,-0.0323,-0.0323,-0.0324,0,0.088,0.0914,0.1,0.1158,0.1266,0.1412,0.1542,0.1656,0.172,0.1799,0.1874,0.1823,0.1382,0.1001,0.0416,0.0106,-0.0459,-0.0298,-0.0555,-0.0739,-0.0879,-0.1002,-0.0267,-0.0325,-0.0325,-0.0325,-0.0325,-0.0325,0.0943,0.1023,0.1136,0.129,0.1427,0.161,0.1753,0.1911,0.2095,0.2241,0.217,0.2172,0.1575,0.0802,0.0341,-0.0458,-0.05,-0.0684,-0.0854,-0.0974,-0.1067,-0.0326,-0.0429,-0.0429,-0.0429,-0.043,-0.043,0,0.1026,0.1118,0.1263,0.1445,0.1613,0.1673,0.1919,0.2082,0.2321,0.2472,0.2556,0.2291,0.156,0.0782,-0.0297,-0.0875,-0.111,-0.1211,-0.1399,-0.1445,-0.0796,-0.0783,-0.0936,-0.0935,-0.0935,-0.0935,-0.0935,-0.0934,0.1067,0.1214,0.1292,0.1567,0.1705,0.1949,0.2101,0.2349,0.2532,0.2749,0.2793,0.2779,0.218,0.0186,-0.1124,-0.1431,-0.1847,-0.1979,-0.2182,-0.174,-0.1703,-0.1668,-0.1692,-0.2032,-0.2034,-0.2724,-0.2731,-0.2736]}],[{"header":{"parameterUnit":"m.s-1","parameterCategory":2,"la1":30.2991,"la2":30.254,"lo1":-89.0895,"lo2":-89.0444,"dy":0.0017,"dx":0.0017,"nx":28,"ny":28,"refTime":"2025-12-04T09:00:00:Z","depth":"2","parameterNumber":2,"parameterNumberName":"U-component_of_CURRENTS"},"data":[0,0,0,0,0,0,0,0,0,0,0,0,0,0,0,0,0,0,0,0,0,0,0,0,0,0,0,0,0,0,0,0,0,0,0,0,0,0,0,0,0,0,0,0,0,0,0,0,0,0,0,0,0,0,0,0,0,0,0.4039,0.404,0,0.4079,0.4079,0.4079,0.4078,0.4078,0.4078,0.4078,0.4079,0.4079,0.408,0,0,0,0,0,0,0,0,0,0,0,0,0,0.3968,0.3969,0.4039,0.404,0.404,0.4079,0.4079,0.4079,0.4078,0.4078,0.4078,0.4077,0.4079,0.4079,0.408,0,0,0,0,0,0,0,0,0,0,0,0,0,0.3999,0.3969,0.4039,0.4047,0.4049,0.4079,0.4079,0.4079,0.4078,0.4078,0.4078,0.4077,0.4079,0.4079,0.408,0.4089,0,0,0.4081,0.4081,0,0,0,0,0,0,0,0,0.3997,0.4001,0.4045,0.4047,0.4048,0.4076,0.4055,0.4082,0.4078,0.4063,0.4078,0.4077,0.4077,0.4078,0.4081,0.4089,0.4089,0.4081,0.4081,0.4081,0.4081,0,0,0,0,0,0,0,0.3995,0.4,0.4051,0.4046,0.4048,0.4052,0.4055,0.406,0.4068,0.4065,0.4066,0.4076,0.4077,0.4081,0.4081,0.4089,0.4081,0.4081,0.4081,0.4082,0.4179,0.4181,0,0,0,0,0,0,0.3998,0.3998,0.405,0.4053,0.4026,0.4053,0.4057,0.4065,0.4069,0.4071,0.4076,0.4076,0.4081,0.4081,0.4081,0.4151,0.4081,0.4082,0.4082,0.4176,0.4179,0.4182,0,0,0,0,0,0,0.3996,0.4002,0.4048,0.4029,0.4036,0.4055,0.4064,0.4066,0.4085,0.4079,0.4079,0.4095,0.408,0.4081,0.411,0.4149,0.4082,0.4082,0.4174,0.4177,0.4181,0.4253,0,0,0,0,0,0,0.3994,0.4001,0.401,0.4029,0.4037,0.4081,0.4064,0.4067,0.4093,0.4093,0.4095,0.4094,0.408,0.411,0.411,0.4148,0.4082,0.4171,0.4175,0.4179,0.4248,0.4259,0.4268,0,0,0,0,0,0.3991,0.4004,0.401,0.4017,0.4048,0.4083,0.4087,0.4097,0.4094,0.4111,0.4118,0.4095,0.4139,0.4112,0.4112,0.4151,0.4169,0.4174,0.4179,0.4243,0.4256,0.4268,0,0,0,0,0,0,0.3974,0.4006,0.4013,0.4034,0.4065,0.4084,0.4102,0.411,0.4129,0.4131,0.4118,0.4118,0.4165,0.415,0.4121,0.4195,0.4153,0.4158,0.4201,0.4214,0.4224,0.4236,0.4083,0,0,0,0,0,0.3977,0.3996,0.4029,0.4047,0.4066,0.4088,0.4105,0.4117,0.4136,0.4144,0.4147,0.4159,0.4186,0.4192,0.4209,0.424,0.4253,0.4269,0.4279,0.4288,0.4301,0.436,0.4376,0.4199,0.4199,0.4199,0,0,0.3974,0.3996,0.4005,0.4046,0.4069,0.4104,0.4097,0.4134,0.4166,0.4141,0.4183,0.4197,0.4205,0.4249,0.4268,0.424,0.4349,0.4295,0.4302,0.431,0.4367,0.4384,0.4399,0.4203,0.4202,0.4202,0,0,0.398,0.4003,0.4023,0.4055,0.4103,0.4124,0.4141,0.4177,0.4199,0.4241,0.4244,0.4283,0.4304,0.4327,0.4339,0.4416,0.4407,0.4423,0.4474,0.4531,0.4546,0.4559,0.4608,0.4625,0.4419,0.4419,0.442,0,0.3975,0.4005,0.4035,0.407,0.4101,0.4138,0.4174,0.4207,0.4248,0.4276,0.4265,0.4344,0.4345,0.4416,0.4445,0.4439,0.4467,0.4422,0.4544,0.4557,0.4569,0.4616,0.4634,0.4424,0.4423,0.4423,0.4422,0,0.3998,0.403,0.405,0.4105,0.4145,0.4185,0.424,0.4282,0.4312,0.4343,0.4424,0.4443,0.4487,0.4503,0.4494,0.459,0.4582,0.4556,0.4509,0.4592,0.4635,0.4653,0.443,0.4428,0.4427,0.4426,0,0,0.396,0.4047,0.4053,0.4083,0.4169,0.4197,0.4275,0.4347,0.4409,0.4451,0.4529,0.4581,0.46,0.4617,0.4626,0.4674,0.4783,0.4655,0.4656,0.4697,0.4917,0.4865,0.4878,0.4779,0.4783,0.4785,0.4915,0,0.3968,0.4025,0.4078,0.4139,0.4173,0.4247,0.4316,0.4391,0.4465,0.4551,0.4598,0.4678,0.4642,0.4686,0.4728,0.4783,0.4831,0.475,0.4836,0.4839,0.4778,0.4897,0.4508,0.4587,0.4932,0.4935,0.4937,0,0.3966,0.4008,0.4063,0.4157,0.4182,0.4231,0.4356,0.4427,0.4564,0.4633,0.4721,0.4768,0.4865,0.482,0.4939,0.4893,0.4913,0.494,0.4945,0.4882,0.4819,0.456,0.4605,0.4965,0.4962,0.496,0.4959,0,0.3902,0.3993,0.4033,0.4064,0.4181,0.4228,0.43,0.4442,0.4529,0.4701,0.4783,0.4894,0.4966,0.5019,0.5062,0.5019,0.519,0.5128,0.5099,0.5095,0.4773,0.4736,0.5212,0.5212,0.5212,0.5211,0.5211,0,0.3877,0.3905,0.4004,0.4023,0.4088,0.419,0.4293,0.4401,0.4577,0.4678,0.4812,0.4916,0.5022,0.5116,0.5129,0.5182,0.5239,0.5145,0.514,0.479,0.4754,0.5077,0.5059,0.5216,0.5215,0.5214,0.5213,0,0.3794,0.3858,0.3905,0.4019,0.4055,0.4101,0.427,0.4352,0.4539,0.4685,0.4747,0.4968,0.5105,0.5191,0.5311,0.5268,0.5325,0.5317,0.4905,0.4851,0.5172,0.5158,0.5312,0.5312,0.5311,0.5311,0.5311,0,0.3754,0.3769,0.3872,0.3895,0.3944,0.4034,0.4101,0.4307,0.4406,0.469,0.4744,0.4968,0.5081,0.5267,0.5266,0.5317,0.5358,0.496,0.4806,0.5211,0.5191,0.5176,0.5162,0.4405,0.4397,0.4391,0.4386,0,0.3675,0.3714,0.3748,0.3802,0.3858,0.3922,0.4035,0.4107,0.434,0.4484,0.4677,0.4813,0.5026,0.4934,0.5033,0.4993,0.4926,0.4838,0.5375,0.4454,0.437,0.4346,0.4359,0.433,0.4336,0.434,0.4343,0.4345,0.3607,0.3607,0.3655,0.3689,0.3743,0.377,0.3774,0.3915,0.404,0.4194,0.4444,0.4511,0.4618,0.4594,0.4488,0.4406,0.4734,0.4491,0.4504,0.4524,0.4411,0.4332,0.4263,0.4268,0.4273,0.4276,0.428,0,0.3502,0.3512,0.3538,0.3553,0.3535,0.3627,0.3691,0.3659,0.3714,0.3913,0.4054,0.3815,0.3818,0.3898,0.3716,0.3763,0.3657,0.3587,0.3386,0.3449,0.3503,0.3328,0.2898,0.2893,0.2888,0.2884,0,0,0.3446,0.3409,0.3414,0.333,0.3341,0.3263,0.3256,0.3249,0.3325,0.3322,0.3342,0.3665,0.382,0.3295,0.3265,0.3036,0.3199,0.2926,0.4051,0.388,0.3926,0.4068,0.3879,0,0,0,0,0]},{"header":{"parameterUnit":"m.s-1","parameterCategory":2,"la1":30.2991,"la2":30.254,"lo1":-89.0895,"lo2":-89.0444,"dy":0.0017,"dx":0.0017,"nx":28,"ny":28,"refTime":"2025-12-04T09:00:00:Z","depth":"2","parameterNumber":3,"parameterNumberName":"V-component_of_CURRENTS"},"data":[0,0,0,0,0,0,0,0,0,0,0,0,0,0,0,0,0,0,0,0,0,0,0,0,0,0,0,0,0,0,0,0,0,0,0,0,0,0,0,0,0,0,0,0,0,0,0,0,0,0,0,0,0,0,0,0,0,0,0.0199,0.0198,0,0.011,0.0109,0.0108,0.0044,0.0044,0.0044,0.0043,-0.0071,-0.0073,-0.0076,0,0,0,0,0,0,0,0,0,0,0,0,0,0.0239,0.0239,0.0199,0.0198,0.0197,0.011,0.0109,0.0107,0.0044,0.0044,0.0044,0.0043,-0.007,-0.0073,-0.0076,0,0,0,0,0,0,0,0,0,0,0,0,0,0.0191,0.0239,0.0199,0.0157,0.0152,0.0111,0.0109,0.0107,0.0044,0.0044,0.0043,0.0043,-0.0069,-0.0073,-0.0077,-0.0093,0,0,-0.0089,-0.0091,0,0,0,0,0,0,0,0,0.0194,0.019,0.0164,0.016,0.0155,0.009,0.0081,0.004,0.0044,0.0083,0.0043,0.0043,-0.0017,-0.0026,-0.0045,-0.0099,-0.0103,-0.009,-0.0092,-0.0094,-0.0095,0,0,0,0,0,0,0,0.0198,0.0193,0.0161,0.0163,0.0157,0.0117,0.011,0.0073,0.0034,0.0079,0.0075,0.0069,-0.0021,-0.004,-0.0048,-0.0105,-0.009,-0.0093,-0.0096,-0.0097,-0.0176,-0.0176,0,0,0,0,0,0,0.0218,0.0196,0.0164,0.0159,0.0176,0.0117,0.0109,0.0109,0.0035,0.0024,0.007,0.0067,-0.0033,-0.0043,-0.0052,-0.0054,-0.0094,-0.0098,-0.01,-0.0176,-0.0176,-0.0175,0,0,0,0,0,0,0.0219,0.0216,0.0168,0.0177,0.0168,0.0118,0.0118,0.0108,0.0092,0.0028,0.0016,0.0065,-0.0034,-0.0046,-0.0075,-0.006,-0.01,-0.0103,-0.0177,-0.0176,-0.0176,-0.0072,0,0,0,0,0,0,0.0221,0.0217,0.0222,0.0179,0.0169,0.0158,0.0118,0.0106,0.009,0.0085,0.002,0.0009,-0.0035,-0.0068,-0.0079,-0.0066,-0.0107,-0.0177,-0.0177,-0.0176,-0.0076,-0.0068,-0.0061,0,0,0,0,0,0.0223,0.0241,0.0223,0.0219,0.0178,0.0159,0.015,0.011,0.0091,0.0092,0.0048,0.0011,-0.0072,-0.0071,-0.0084,-0.0072,-0.0178,-0.0177,-0.0176,-0.0079,-0.0069,-0.0061,0,0,0,0,0,0,0.0259,0.0235,0.0215,0.0223,0.0198,0.0149,0.0147,0.012,0.0085,0.008,0.0017,0.0003,-0.0018,-0.006,-0.0058,-0.0094,-0.0131,-0.0133,-0.0053,-0.0045,-0.0038,-0.0009,-0.011,0,0,0,0,0,0.0271,0.0278,0.0243,0.0249,0.0242,0.0195,0.0181,0.0157,0.0121,0.0105,0.0059,0.0011,-0.0026,-0.0045,-0.0086,-0.0103,-0.0148,-0.0105,-0.0097,-0.0091,-0.0077,-0.0135,-0.0131,-0.0173,-0.0173,-0.0173,0,0,0.0285,0.0273,0.0275,0.0257,0.0232,0.0241,0.0186,0.0177,0.0182,0.0099,0.009,0.0036,-0.0025,-0.0044,-0.0057,-0.0075,-0.0103,-0.009,-0.0083,-0.0073,-0.0133,-0.0129,-0.0126,-0.0172,-0.0172,-0.0172,0,0,0.0329,0.0309,0.0333,0.0322,0.03,0.0275,0.028,0.0239,0.0218,0.02,0.0143,0.0104,0.0045,0.0007,-0.002,0.0003,-0.0063,-0.0014,0.0049,-0.0007,-0.0004,-0.0001,-0.0052,-0.0055,-0.0009,-0.0008,-0.0008,0,0.0346,0.0374,0.0336,0.0358,0.0362,0.0301,0.0333,0.0304,0.0258,0.0251,0.0212,0.0126,0.0071,0.0051,0.0056,0.0022,-0.0021,0.0023,0.0004,0.0006,0.0006,-0.0046,-0.0051,-0.0003,-0.0004,-0.0004,-0.0005,0,0.0411,0.0431,0.0445,0.0457,0.0455,0.0471,0.0435,0.0423,0.0386,0.0354,0.0319,0.0232,0.0186,0.0155,0.0112,0.0094,0.0059,0.0021,-0.0012,0.0017,-0.0041,-0.0047,0.0004,0.0002,0.0001,-0.0001,0,0,0.0459,0.0488,0.0493,0.0524,0.0513,0.0524,0.0531,0.0527,0.0544,0.0466,0.0472,0.0385,0.033,0.0295,0.0225,0.017,0.013,0.0106,0.0101,0.0068,0.001,-0.0015,-0.0025,0.0087,0.0087,0.0086,-0.0031,0,0.0523,0.0599,0.059,0.066,0.07,0.0659,0.0674,0.0657,0.0626,0.0612,0.0508,0.0483,0.0386,0.0366,0.0295,0.0177,0.0117,0.0166,-0.0024,-0.0029,-0.0045,-0.0032,0.0007,-0.0094,-0.0038,-0.0039,-0.004,0,0.0594,0.0639,0.0724,0.0778,0.079,0.0814,0.0842,0.0853,0.081,0.0786,0.0729,0.0643,0.0557,0.0465,0.0275,0.031,0.0175,0.0068,0.006,-0.0,-0.0065,-0.0117,-0.0109,-0.0052,-0.0051,-0.005,-0.005,0,0.0662,0.0735,0.0812,0.0829,0.0871,0.0896,0.0915,0.0903,0.0946,0.0901,0.0915,0.078,0.0727,0.0538,0.0313,0.0294,0.0095,0.0039,-0.0114,-0.0117,-0.014,-0.0144,-0.0097,-0.0097,-0.0097,-0.0097,-0.0096,0,0.0741,0.0802,0.0851,0.0892,0.0989,0.0981,0.1074,0.1068,0.1088,0.1155,0.1014,0.1026,0.0742,0.0589,0.0363,0.0115,0.013,-0.0095,-0.0146,-0.0103,-0.0102,-0.0111,-0.0111,-0.0101,-0.01,-0.0099,-0.0098,0,0.0807,0.0833,0.0931,0.0996,0.1026,0.1095,0.12,0.1272,0.1265,0.1344,0.1338,0.1216,0.102,0.0725,0.0421,0.0203,-0.0047,-0.0143,-0.007,-0.011,-0.0238,-0.0232,-0.0324,-0.0326,-0.0328,-0.0329,-0.033,0,0.0849,0.0906,0.1018,0.1088,0.1122,0.123,0.1313,0.1359,0.1454,0.1471,0.1523,0.1359,0.1282,0.0827,0.0409,0.0012,-0.0047,-0.0225,-0.026,-0.022,-0.0261,-0.0252,-0.0243,-0.0255,-0.0255,-0.0255,-0.0256,0,0.0933,0.0966,0.1048,0.1199,0.1303,0.1443,0.1565,0.1668,0.1725,0.179,0.1839,0.1775,0.1343,0.0955,0.0397,0.0122,-0.0161,-0.0243,-0.0222,-0.0195,-0.0162,-0.0199,-0.0192,-0.0258,-0.0258,-0.0258,-0.0258,-0.0258,0.0992,0.1067,0.1175,0.1322,0.1453,0.1626,0.1759,0.1898,0.2059,0.216,0.2085,0.2003,0.1537,0.0845,0.0349,-0.0184,-0.0158,-0.0345,-0.0341,-0.0337,-0.03,-0.027,-0.038,-0.0381,-0.0381,-0.0381,-0.0382,0,0.1069,0.1156,0.1293,0.1466,0.1626,0.1685,0.1911,0.2049,0.225,0.2325,0.2367,0.1933,0.1483,0.0934,0.0157,-0.0299,-0.034,-0.0454,-0.0398,-0.0391,-0.0386,-0.035,-0.0445,-0.0447,-0.0448,-0.0449,0,0,0.1107,0.1245,0.1318,0.1577,0.1709,0.1938,0.2077,0.2273,0.2388,0.2478,0.2431,0.2329,0.1658,0.1091,0.0459,0.0006,-0.0091,-0.0092,0.0011,0.016,0.017,-0.027,-0.0201,0,0,0,0,0]}],[{"header":{"parameterUnit":"m.s-1","parameterCategory":2,"la1":30.2991,"la2":30.254,"lo1":-89.0895,"lo2":-89.0444,"dy":0.0017,"dx":0.0017,"nx":28,"ny":28,"refTime":"2025-12-04T09:00:00:Z","depth":"4","parameterNumber":2,"parameterNumberName":"U-component_of_CURRENTS"},"data":[0,0,0,0,0,0,0,0,0,0,0,0,0,0,0,0,0,0,0,0,0,0,0,0,0,0,0,0,0,0,0,0,0,0,0,0,0,0,0,0,0,0,0,0,0,0,0,0,0,0,0,0,0,0,0,0,0,0,0.2695,0.2696,0,0.2793,0.2794,0.2794,0.2879,0.2881,0.2882,0.2883,0.2997,0.2998,0.3,0,0,0,0,0,0,0,0,0,0,0,0,0,0.2568,0.2569,0.2695,0.2696,0.2698,0.2793,0.2794,0.2795,0.2879,0.2881,0.2882,0.2884,0.2996,0.2998,0.3,0,0,0,0,0,0,0,0,0,0,0,0,0,0.2637,0.257,0.2694,0.2753,0.276,0.2792,0.2794,0.2795,0.2879,0.2881,0.2883,0.2884,0.2995,0.2998,0.3001,0.2982,0,0,0.3009,0.3011,0,0,0,0,0,0,0,0,0.2633,0.2641,0.2743,0.2749,0.2757,0.2828,0.2791,0.2859,0.2878,0.2831,0.2883,0.2885,0.2942,0.2949,0.296,0.2987,0.2992,0.301,0.3011,0.3013,0.3013,0,0,0,0,0,0,0,0.2628,0.2638,0.2731,0.2745,0.2753,0.2771,0.2782,0.2804,0.2873,0.2835,0.2842,0.2857,0.2946,0.2957,0.2963,0.2994,0.301,0.3012,0.3014,0.3015,0.3191,0.3193,0,0,0,0,0,0,0.2621,0.2633,0.2728,0.2734,0.2701,0.2772,0.2785,0.2801,0.2873,0.2886,0.2855,0.286,0.2951,0.296,0.2967,0.3107,0.3013,0.3015,0.3017,0.3188,0.3191,0.3194,0,0,0,0,0,0,0.2617,0.2628,0.2724,0.2688,0.2702,0.2772,0.279,0.2802,0.2873,0.2888,0.2902,0.2921,0.2953,0.2963,0.3045,0.3106,0.3016,0.3019,0.3184,0.3189,0.3193,0.3285,0,0,0,0,0,0,0.2613,0.2626,0.2663,0.2687,0.2704,0.2782,0.2789,0.2803,0.2877,0.2887,0.2948,0.2957,0.2955,0.3041,0.3048,0.3109,0.3021,0.318,0.3186,0.3191,0.3278,0.3292,0.3304,0,0,0,0,0,0.2608,0.264,0.2664,0.2677,0.2742,0.2784,0.2795,0.2847,0.2879,0.2918,0.2968,0.2958,0.3081,0.3045,0.3053,0.3116,0.3178,0.3184,0.3191,0.3273,0.329,0.3304,0,0,0,0,0,0,0.2606,0.2653,0.2679,0.2726,0.2772,0.28,0.2849,0.288,0.2948,0.2979,0.299,0.3003,0.31,0.3096,0.3056,0.3185,0.313,0.3139,0.319,0.3206,0.3218,0.322,0.3024,0,0,0,0,0,0.262,0.2663,0.2702,0.2749,0.2777,0.2825,0.2861,0.2897,0.2946,0.2982,0.3024,0.3074,0.3121,0.3156,0.3192,0.3256,0.3258,0.3305,0.3318,0.3329,0.3337,0.3391,0.3409,0.3216,0.3216,0.3216,0,0,0.2633,0.2667,0.2694,0.2754,0.2797,0.2843,0.2853,0.2925,0.298,0.298,0.3088,0.3125,0.315,0.323,0.3272,0.3242,0.3388,0.3337,0.3346,0.3349,0.3399,0.3418,0.3434,0.3221,0.322,0.3219,0,0,0.2658,0.2714,0.2753,0.2796,0.2872,0.2899,0.2933,0.2997,0.3053,0.314,0.3164,0.324,0.331,0.3341,0.3361,0.3466,0.3456,0.3491,0.3556,0.3609,0.3624,0.3638,0.3673,0.3689,0.3494,0.3495,0.3495,0,0.2677,0.2727,0.2773,0.2819,0.2867,0.293,0.2982,0.3038,0.3127,0.3176,0.3195,0.3332,0.3358,0.3446,0.3491,0.3495,0.352,0.3491,0.3624,0.3637,0.365,0.3682,0.3699,0.35,0.3499,0.3499,0.3498,0,0.271,0.2775,0.2807,0.2886,0.2942,0.3004,0.3075,0.3155,0.3231,0.3279,0.3409,0.3456,0.3532,0.3562,0.3561,0.3673,0.3661,0.3634,0.3578,0.3675,0.3703,0.3719,0.3508,0.3506,0.3504,0.3503,0,0,0.2683,0.2806,0.2825,0.2875,0.2989,0.3027,0.3138,0.3235,0.3321,0.3418,0.3523,0.3617,0.3658,0.3686,0.371,0.3762,0.3876,0.375,0.375,0.3774,0.3998,0.3754,0.3747,0.388,0.3883,0.3886,0.3984,0,0.2702,0.279,0.2856,0.2957,0.3006,0.3107,0.3198,0.3302,0.3406,0.3524,0.36,0.3714,0.37,0.377,0.3819,0.3872,0.3921,0.3851,0.391,0.3912,0.3674,0.3758,0.3896,0.3996,0.3999,0.4002,0.4004,0,0.2701,0.2765,0.2862,0.2993,0.3029,0.3109,0.3273,0.3366,0.3531,0.3622,0.3741,0.3808,0.3928,0.3899,0.4021,0.3985,0.4005,0.4026,0.403,0.3776,0.3695,0.3879,0.4031,0.4029,0.4027,0.4025,0.4023,0,0.2626,0.2764,0.2845,0.2891,0.3048,0.3133,0.3234,0.3403,0.3502,0.3706,0.3799,0.3933,0.4028,0.4083,0.413,0.4102,0.4241,0.4194,0.3988,0.3972,0.412,0.4104,0.4271,0.427,0.427,0.427,0.427,0,0.2585,0.2656,0.2829,0.2869,0.2984,0.3114,0.3261,0.3389,0.3581,0.3684,0.3851,0.3939,0.4085,0.4168,0.4183,0.4127,0.4282,0.4011,0.3982,0.4158,0.4146,0.4131,0.4114,0.4274,0.4273,0.4272,0.4271,0,0.248,0.2595,0.2696,0.2883,0.2951,0.3038,0.3263,0.3354,0.3565,0.3711,0.3786,0.399,0.409,0.4189,0.4293,0.4167,0.4162,0.4103,0.4305,0.4285,0.3847,0.3834,0.3873,0.3865,0.3858,0.3853,0.3848,0,0.2426,0.2472,0.2682,0.2745,0.2843,0.2997,0.3094,0.3326,0.3416,0.3692,0.3727,0.3925,0.4022,0.3966,0.4097,0.4108,0.4057,0.4022,0.3907,0.3838,0.3808,0.3805,0.3801,0.3838,0.3836,0.3834,0.3833,0,0.232,0.2425,0.2506,0.2641,0.2758,0.2862,0.3018,0.3062,0.3304,0.3524,0.358,0.3636,0.3739,0.3802,0.3846,0.3844,0.4025,0.3952,0.3964,0.3856,0.3796,0.3772,0.3776,0.381,0.3813,0.3815,0.3816,0,0.2249,0.2279,0.2406,0.2499,0.2633,0.2674,0.2781,0.287,0.2986,0.3273,0.3286,0.349,0.3691,0.3667,0.3708,0.3691,0.3625,0.3487,0.3522,0.3549,0.3396,0.327,0.3104,0,0,0,0,0,0.2159,0.2169,0.2248,0.2328,0.2449,0.2526,0.2699,0.2807,0.3033,0.2986,0.3125,0.3202,0.3263,0.3381,0.3298,0.3577,0.3648,0.3464,0.3509,0.3683,0.371,0.3559,0,0,0,0,0,0,0.2094,0.2163,0.2184,0.2162,0.2183,0.2288,0.2387,0.2542,0.2526,0.2768,0.2819,0.3007,0.3121,0.3273,0.3235,0.327,0.3231,0.3605,0.3597,0.3668,0.3692,0.3713,0.3567,0,0,0,0,0]},{"header":{"parameterUnit":"m.s-1","parameterCategory":2,"la1":30.2991,"la2":30.254,"lo1":-89.0895,"lo2":-89.0444,"dy":0.0017,"dx":0.0017,"nx":28,"ny":28,"refTime":"2025-12-04T09:00:00:Z","depth":"4","parameterNumber":3,"parameterNumberName":"V-component_of_CURRENTS"},"data":[0,0,0,0,0,0,0,0,0,0,0,0,0,0,0,0,0,0,0,0,0,0,0,0,0,0,0,0,0,0,0,0,0,0,0,0,0,0,0,0,0,0,0,0,0,0,0,0,0,0,0,0,0,0,0,0,0,0,0.0215,0.0215,0,0.0156,0.0155,0.0155,0.0113,0.0113,0.0113,0.0113,0.0028,0.0026,0.0024,0,0,0,0,0,0,0,0,0,0,0,0,0,0.024,0.024,0.0215,0.0215,0.0214,0.0156,0.0155,0.0154,0.0113,0.0113,0.0113,0.0113,0.0029,0.0026,0.0024,0,0,0,0,0,0,0,0,0,0,0,0,0,0.0208,0.024,0.0216,0.0188,0.0185,0.0157,0.0155,0.0154,0.0113,0.0113,0.0113,0.0112,0.003,0.0027,0.0024,0.0009,0,0,0.0014,0.0013,0,0,0,0,0,0,0,0,0.021,0.0207,0.0193,0.019,0.0186,0.0143,0.0133,0.0105,0.0113,0.0139,0.0113,0.0112,0.0066,0.0059,0.0047,0.0005,0.0002,0.0014,0.0012,0.001,0.001,0,0,0,0,0,0,0,0.0213,0.0209,0.019,0.0192,0.0188,0.0161,0.0156,0.0127,0.0103,0.0136,0.0134,0.013,0.0063,0.005,0.0045,0.0,0.0014,0.0011,0.0009,0.0008,-0.0053,-0.0053,0,0,0,0,0,0,0.0226,0.0212,0.0192,0.0189,0.02,0.0161,0.0156,0.0156,0.0103,0.0096,0.013,0.0128,0.0056,0.0048,0.0041,0.0042,0.001,0.0007,0.0006,-0.0054,-0.0053,-0.0053,0,0,0,0,0,0,0.0227,0.0225,0.0195,0.02,0.0194,0.0161,0.0162,0.0155,0.0147,0.0099,0.0091,0.013,0.0055,0.0046,0.0025,0.0038,0.0006,0.0003,-0.0054,-0.0054,-0.0053,0.003,0,0,0,0,0,0,0.0228,0.0226,0.0233,0.0201,0.0195,0.0189,0.0162,0.0154,0.0145,0.0142,0.0096,0.0087,0.0054,0.003,0.0022,0.0033,0.0001,-0.0054,-0.0054,-0.0053,0.0027,0.0033,0.0038,0,0,0,0,0,0.0229,0.0243,0.0233,0.0231,0.0204,0.019,0.0184,0.0157,0.0146,0.0148,0.0117,0.0089,0.0027,0.0028,0.0019,0.0029,-0.0055,-0.0054,-0.0053,0.0024,0.0032,0.0038,0,0,0,0,0,0,0.0256,0.024,0.0228,0.0236,0.0219,0.0183,0.0184,0.0165,0.0142,0.0141,0.0094,0.0083,0.0068,0.0036,0.0038,0.0011,-0.0019,-0.002,0.0043,0.005,0.0055,0.0078,-0.0002,0,0,0,0,0,0.0266,0.0273,0.0249,0.0255,0.0251,0.0219,0.021,0.0194,0.0169,0.0158,0.0125,0.009,0.0062,0.0048,0.0016,0.0004,-0.0036,0.0002,0.0008,0.0013,0.0024,-0.0029,-0.0027,-0.0051,-0.0051,-0.0051,0,0,0.0278,0.027,0.0274,0.0262,0.0246,0.0253,0.0213,0.0209,0.0215,0.0153,0.015,0.0109,0.0062,0.0049,0.0039,0.0025,-0.0002,0.0014,0.0019,0.0027,-0.0028,-0.0026,-0.0023,-0.0051,-0.0051,-0.0051,0,0,0.031,0.03,0.0319,0.0312,0.0299,0.0282,0.0286,0.0257,0.0244,0.0233,0.0191,0.0161,0.0118,0.0088,0.0067,0.0085,0.003,0.0073,0.0122,0.0071,0.0073,0.0074,0.0026,0.0022,0.0077,0.0077,0.0077,0,0.0325,0.0347,0.0321,0.0338,0.0344,0.0302,0.0327,0.0307,0.0275,0.0272,0.0244,0.018,0.0138,0.0122,0.0127,0.01,0.0061,0.0103,0.008,0.008,0.008,0.003,0.0025,0.0081,0.0081,0.008,0.008,0,0.0371,0.0391,0.0402,0.0414,0.0415,0.0429,0.0405,0.0399,0.0376,0.0354,0.0327,0.0262,0.0227,0.0203,0.0171,0.0153,0.0123,0.0093,0.0067,0.0087,0.0033,0.0026,0.0087,0.0085,0.0084,0.0083,0,0,0.0402,0.0431,0.0437,0.0464,0.0461,0.0471,0.048,0.048,0.0496,0.0439,0.0445,0.038,0.0339,0.0312,0.0258,0.0209,0.017,0.0159,0.0155,0.0121,0.0057,0.0041,0.0031,0.0135,0.0134,0.0133,0.002,0,0.0448,0.0508,0.0507,0.0566,0.0598,0.0574,0.059,0.0581,0.0561,0.0552,0.0472,0.0455,0.0382,0.0369,0.0308,0.0209,0.0155,0.0203,0.0034,0.003,0.002,0.0024,0.0131,0.0015,0.0013,0.0012,0.0011,0,0.0495,0.0534,0.0604,0.0656,0.0668,0.0694,0.0724,0.0736,0.0706,0.069,0.0647,0.0581,0.051,0.044,0.0275,0.0309,0.0196,0.0106,0.0099,0.0053,0.0001,-0.0013,-0.0003,-0.0001,-0.0,0.0,0.0001,0,0.0538,0.0603,0.0669,0.0686,0.073,0.0759,0.0782,0.078,0.0815,0.0784,0.0795,0.0684,0.0641,0.0483,0.0296,0.0286,0.0103,0.0065,-0.0062,-0.0065,-0.0053,-0.0053,-0.0056,-0.0056,-0.0055,-0.0055,-0.0055,0,0.0587,0.0641,0.0699,0.0734,0.0821,0.0826,0.091,0.091,0.0932,0.0981,0.0876,0.0871,0.065,0.0515,0.0329,0.0119,0.0125,-0.0049,-0.0093,-0.0016,-0.0011,-0.0058,-0.0057,-0.0059,-0.0059,-0.0058,-0.0057,0,0.0622,0.0656,0.0741,0.0812,0.0846,0.0909,0.1014,0.1073,0.1075,0.1132,0.1129,0.1018,0.0841,0.0606,0.0346,0.018,-0.0031,-0.0112,-0.0002,-0.0039,-0.0175,-0.0169,-0.0259,-0.0261,-0.0262,-0.0263,-0.0264,0,0.0643,0.0691,0.0806,0.0871,0.0911,0.1014,0.1091,0.1143,0.121,0.1219,0.1244,0.1103,0.0992,0.0628,0.0365,0.0007,-0.0053,-0.0172,-0.0187,-0.0162,-0.0196,-0.0187,-0.0179,-0.0266,-0.0266,-0.0267,-0.0267,0,0.0686,0.0729,0.0801,0.0938,0.1039,0.1162,0.1269,0.1329,0.138,0.1388,0.1343,0.1148,0.0946,0.0643,0.0365,0.0104,-0.01,-0.0186,-0.0186,-0.0201,-0.0171,-0.0201,-0.0192,-0.0271,-0.0271,-0.027,-0.027,0,0.0719,0.0777,0.0877,0.0999,0.1134,0.1258,0.1318,0.1389,0.1452,0.1446,0.1429,0.1203,0.1075,0.0694,0.0439,0.018,0.0101,-0.0004,-0.0015,-0.0013,0.0081,0.0156,0.0126,0,0,0,0,0,0.0746,0.0814,0.093,0.1063,0.1201,0.1284,0.1415,0.1461,0.1507,0.1491,0.1463,0.1272,0.0896,0.0742,0.0481,0.0391,0.0042,0.0072,-0.0087,-0.0295,-0.029,-0.0224,0,0,0,0,0,0,0.076,0.0867,0.0927,0.1098,0.1199,0.1357,0.1447,0.1481,0.147,0.1469,0.1286,0.1187,0.0835,0.105,0.0473,0.0394,0.025,-0.0097,-0.0104,-0.0298,-0.0293,-0.0289,-0.022,0,0,0,0,0]}]]